User: anonymous   Login
Location: Caltech
(34.1382°N, 118.1253°W)
Time: 05:13:47
(UTC-07:00)
Language:

PAYLOAD A - Orbit

View from above orbital plane
View from above orbital plane
View from above satellite
View from above satellite

Ground track
Ground track

The orbit data is extracted from the following two-line orbital elements,

1 27840U 03031A   14302.92185510  .00000094  00000-0  42124-4 0  6851
2 27840 098.2260 326.0781 0099568 136.1941 347.6085 14.38736026595089
Epoch (UTC): 29 October 2014 22:07:28
Eccentricity: 0.0099568
inclination: 98.2260°
perigee height: 691 km
apogee height: 834 km
right ascension of ascending node: 326.0781°
argument of perigee: 136.1941°
revolutions per day: 14.38736026
mean anomaly at epoch: 347.6085°
orbit number at epoch: 59508

The dashed part of the orbit path shows where the satellite is in the earth's shadow,  

DLR